Showing default

FLOCK 4BE 32, 60497

Orbit data source: Space-Track

FLOCK 4BE 32, 60497 is a payload satellite owned by Planet (US) in SSO that was launched on Fri, 16 Aug 2024 UTC via an FALCON 9 launch vehicle from the Air Force Western Test Range (AFWTR). Payloads include a variety of satellites, spacecraft, and rockets equipped with specific instruments for various scientific and technological missions. These include communications satellites like Starlink; space stations such as the ISS; scientific satellites like the Hubble; Earth observation satellites from companies like Planet Labs, Umbra, and HawkEye 360; GPS; miniature CubeSats for education and research; and military/defense satellites.

Loading next visibility...
FLOCK 4BE 32 details
Identifier
60497, 2024-149AF
Orbit
SSO
Last TLE update19 hours ago
Origin
Flag of USPlanet (US)
ManufacturerPlanet
MissionOperational spacecraft
Bus & MotorCUBESAT 3U, Unknown motor
Mass5.7 kg wet, 5.7 kg dry
Launch date (UTC)
2024-08-16 (4 months ago)
Launch vehicle
FALCON 9
Launch site
Air Force Western Test Range (AFWTR)
Object type
Payload
Rocket body
Debris
Shape & HBRUnknown
Radar Cross SectionMedium (>0.1 m² and <1 m²)

Expand to show TLE details & history

TLE from 19 hours ago
0 FLOCK 4BE 32
1 60497U 24149AF  24355.81546249  .00013927  00000-0  59874-3 0  9992
2 60497  97.4251  69.5593 0005910  50.1358 310.0397 15.22752127 19142
Epoch: 2024-12-20T19:34Z
Definitive object data (Epoch: 2024-12-20T19:34:15.959Z)
Latitude-0.00006°
Longitude46.11725°
Altitude498.024 km
Speed7.617 km/s
True Right ascension04h 38m 14s
True Declination0° 00' 00"
Sunlit
Object was in full shadow at TLE epoch
Visualization TLE readout
Latitude-25.04016°
Longitude50.36322°
Altitude505.728 km
Speed7.611 km/s
Apparent Right ascension03h 23m 50s
Apparent Declination-34° 50' 44"
Sunlit
Object is in full shadow
Visualization observer readout
Local Sidereal Time13:25:17
Azimuth272.747° WNW
Elevation-66.025°
Doppler factor1
Orbital elements
Apogee altitude498.568 km
Perigee altitude490.445 km
Semi-major axis6,872.644 km
Eccentricity0.000591
Inclination97.4251°
RAAN69.5593°
Arg. of periapsis50.1358°
True anomaly309.98783°
Mean anomaly310.0397°
Eccentric anomaly310.01377°
Mean motion3.80941 °/min
BSTAR0.00059874
Orbital period94.5 mins
Loading maneuver chart data...
Loading historical data...
Loading historical data...
Loading historical data...
Loading historical data...
Loading historical data...
Loading historical data...
Loading historical data...

FLOCK 4BE 32 Visibility forecast

Observer location: undefined°, undefined

Span
Click to sort rows by Start time (UTC) header in descending order
Start Az.
Max El. time (UTC)
Max El. Az.
Max El.
End time (UTC)
End Az.
6 mins2024-12-21 18:12:10.116Z4.517° NNE2024-12-21 18:15:10.116Z317.909° NNW40.269°2024-12-21 18:18:10.116Z206.539° SW
5 mins2024-12-22 04:50:10.116Z136.157° SSE2024-12-22 04:52:10.116Z76.592° E34.681°2024-12-22 04:55:10.116Z4.221° NNE
|